Regional Weather Roundup
Issued by NWS

Home | Current Version | Previous Version | Text Only | Print | Product List | Glossary On
Versions: 1 2 3 4 5 6 7 8 9 10 11 12 13 14 15 16 17 18 19 20 21 22 23 24 25 26 27 28 29 30 31 32 33 34 35 36 37 38 39 40 41 42 43 44 45 46 47 48 49 50
662
ASUS43 KFSD 251102
RWRSD

WEATHER ROUNDUP FOR SOUTH DAKOTA
NATIONAL WEATHER SERVICE SIOUX FALLS SD
600 AM CDT WED APR 25 2018

NOTE: "FAIR" INDICATES FEW OR NO CLOUDS BELOW 12,000 FEET WITH NO
SIGNIFICANT WEATHER AND/OR OBSTRUCTIONS TO VISIBILITY.


SDZ001>005-009-010-012>017-251200-
NORTHWEST AND NORTH CENTRAL SOUTH DAKOTA

CITY           SKY/WX    TMP DP  RH WIND       PRES   REMARKS
BUFFALO          N/A     33  25  72 W6        30.17F WCI  28
FAITH            N/A     33  27  78 SW9       30.27F WCI  25
MOBRIDGE       CLEAR     33  28  81 SE7       30.26F WCI  27
$$

SDZ012>016-024>037-041>051-057-063-072>074-251200-
SOUTHWEST AND SOUTH CENTRAL SOUTH DAKOTA

CITY           SKY/WX    TMP DP  RH WIND       PRES   REMARKS
RAPID CTY ARPT CLEAR     28  21  75 S6        30.29F WCI  22
PIERRE         CLEAR     32  30  92 SW9       30.30F WCI  24
CUSTER         CLEAR     26  19  74 W7        30.27F WCI  18
ELLSWORTH AFB  CLEAR     31  23  73 SW6       30.27F WCI  25
PHILIP         CLEAR     29  26  89 W9        30.32F WCI  20
PINE RIDGE     CLEAR     22  20  92 CALM      30.34F
SPEARFISH      FAIR      27  19  74 SE6       30.27F WCI  20
WINNER         FAIR      34  28  79 W7        30.32F WCI  28
$$

SDZ004>011-016>023-039-040-251200-
NORTHEAST SOUTH DAKOTA

CITY           SKY/WX    TMP DP  RH WIND       PRES   REMARKS
ABERDEEN       CLEAR     24  22  91 SW6       30.30F WCI  17
WATERTOWN      CLEAR     27  26  96 CALM      30.28F
BROOKINGS      CLEAR     32  28  85 N5        30.28F WCI  27
SISSETON         N/A     29  26  89 CALM      30.28F
$$

SDZ017-020-022-023-036>040-048>070-251200-
SOUTHEAST SOUTH DAKOTA

CITY           SKY/WX    TMP DP  RH WIND       PRES   REMARKS
SIOUX FALLS    CLEAR     33  27  78 CALM      30.28S
HURON          CLEAR     27  25  92 W6        30.31F WCI  20
CHAMBERLAIN    CLEAR     31  31 100 W5        30.32F WCI  27
MITCHELL       CLEAR     31  28  89 W5        30.32F WCI  26
YANKTON        CLOUDY    36  31  82 NW10      30.29S
$$

ABBREVIATIONS USED IN REMARKS
   TC - TEMPERATURE IN CELSIUS
  WCI - WIND CHILL INDEX
   HX - HEAT INDEX
  VSB - VISIBILITY





USA.gov is the U.S. government's official web portal to all federal, state and local government web resources and services.